Temp
-15 -15 -15 -15 -16 -16 -15 -15 -15 -15 -14 -14 -14 -13 -13 -13 -13 -13 -13 -13 -13 -13 -13 -13 -13 -13 -13 -13 -13 -13 -12 -13 -13 -13 -12 -12 -12 -12 -12 -12 -12 -12 -12 -12
-15 -15 -16 -16 -16 -15 -16 -16 -15 -14 -15 -15 -14 -14 -13 -13 -13 -13 -13 -13 -13 -13 -13 -13 -13 -13 -13 -13 -13 -13 -13 -13 -13 -13 -13 -12 -12 -12 -12 -12 -12 -12 -12 -12
-16 -16 -16 -16 -16 -15 -16 -15 -15 -15 -15 -15 -14 -14 -14 -13 -13 -13 -13 -13 -13 -13 -14 -14 -14 -13 -13 -13 -13 -13 -13 -13 -13 -13 -13 -13 -13 -12 -12 -12 -12 -12 -12 -12
-16 -16 -16 -16 -16 -16 -16 -16 -16 -15 -15 -15 -15 -14 -14 -14 -14 -13 -13 -14 -14 -14 -14 -14 -14 -14 -14 -14 -14 -13 -13 -13 -13 -13 -13 -13 -13 -13 -13 -12 -12 -12 -12 -12
-16 -16 -16 -16 -16 -16 -16 -17 -16 -15 -15 -15 -15 -14 -14 -14 -14 -14 -14 -14 -14 -14 -14 -14 -14 -14 -14 -14 -14 -14 -14 -14 -13 -13 -13 -13 -13 -13 -13 -13 -13 -12 -12 -13
-16 -16 -16 -16 -16 -16 -16 -16 -17 -16 -16 -15 -15 -15 -14 -14 -14 -15 -15 -15 -15 -15 -14 -14 -14 -14 -14 -14 -14 -14 -14 -14 -14 -14 -14 -14 -14 -13 -13 -13 -13 -13 -13 -13
-17 -16 -16 -16 -16 -16 -16 -17 -17 -17 -16 -15 -15 -16 -14 -14 -14 -15 -15 -15 -15 -15 -15 -15 -15 -15 -15 -15 -15 -14 -14 -14 -14 -14 -14 -14 -14 -14 -14 -14 -14 -13 -13 -13
-17 -17 -17 -17 -17 -17 -17 -17 -17 -16 -16 -16 -16 -16 -14 -14 -14 -15 -15 -15 -15 -15 -15 -15 -15 -15 -15 -15 -15 -15 -15 -15 -15 -15 -15 -15 -15 -15 -15 -14 -14 -14 -14 -14
-17 -17 -17 -17 -17 -17 -17 -17 -17 -17 -17 -16 -16 -16 -15 -15 -15 -15 -16 -16 -16 -16 -16 -16 -16 -16 -16 -16 -16 -15 -15 -15 -15 -15 -15 -15 -15 -15 -15 -15 -15 -15 -15 -14
-18 -18 -17 -17 -17 -17 -17 -17 -17 -17 -17 -17 -16 -16 -15 -15 -16 -16 -16 -16 -16 -16 -16 -16 -16 -16 -16 -16 -16 -16 -16 -15 -15 -15 -15 -15 -15 -15 -15 -15 -15 -15 -15 -15
-18 -18 -17 -18 -17 -17 -17 -17 -17 -17 -17 -17 -17 -16 -16 -16 -17 -17 -17 -17 -17 -17 -17 -17 -17 -17 -17 -17 -17 -17 -16 -16 -16 -17 -17 -16 -16 -16 -16 -16 -16 -16 -16 -16
-19 -18 -18 -18 -18 -18 -18 -18 -18 -18 -18 -18 -18 -17 -18 -18 -18 -18 -18 -18 -18 -18 -18 -18 -18 -18 -18 -18 -18 -18 -18 -17 -17 -17 -17 -17 -17 -17 -17 -17 -17 -17 -17 -17
-19 -18 -18 -18 -18 -18 -18 -19 -19 -19 -19 -19 -19 -18 -18 -18 -19 -19 -19 -19 -19 -19 -19 -19 -19 -19 -19 -19 -18 -18 -18 -18 -18 -18 -18 -18 -17 -17 -17 -17 -17 -17 -17 -17
-19 -19 -19 -19 -19 -19 -19 -19 -19 -19 -19 -19 -19 -19 -19 -20 -19 -20 -20 -20 -20 -20 -20 -19 -19 -19 -19 -19 -19 -19 -19 -18 -18 -18 -18 -18 -18 -18 -18 -17 -17 -17 -17 -17
-19 -19 -19 -19 -19 -20 -20 -20 -20 -21 -21 -21 -20 -20 -20 -21 -20 -20 -20 -20 -20 -20 -20 -20 -20 -20 -20 -19 -19 -19 -19 -19 -19 -19 -19 -19 -18 -18 -18 -18 -18 -18 -18 -18
-20 -20 -20 -20 -21 -22 -21 -21 -21 -21 -21 -21 -21 -21 -21 -21 -21 -21 -21 -21 -21 -21 -20 -20 -20 -20 -20 -20 -20 -20 -20 -20 -19 -19 -19 -19 -19 -19 -19 -19 -19 -19 -18 -18
-22 -22 -22 -22 -22 -22 -22 -21 -22 -22 -22 -21 -21 -21 -21 -21 -21 -21 -21 -21 -21 -21 -21 -21 -21 -21 -21 -21 -21 -21 -21 -21 -20 -20 -20 -20 -20 -20 -20 -20 -19 -19 -19 -19
-22 -22 -22 -22 -22 -22 -22 -22 -22 -22 -22 -22 -22 -22 -22 -22 -21 -21 -21 -21 -21 -21 -21 -21 -22 -22 -22 -22 -21 -22 -22 -22 -21 -21 -22 -22 -22 -21 -21 -21 -21 -22 -22 -22
-23 -22 -22 -22 -22 -22 -22 -22 -22 -22 -22 -22 -22 -22 -22 -22 -22 -22 -22 -22 -22 -22 -22 -22 -22 -22 -23 -23 -23 -23 -23 -23 -24 -24 -25 -26 -26 -26 -26 -26 -26 -27 -27 -27
-22 -22 -22 -22 -22 -22 -22 -22 -22 -22 -22 -22 -22 -22 -23 -23 -23 -23 -23 -23 -23 -23 -23 -23 -24 -24 -24 -25 -25 -26 -27 -27 -27 -28 -28 -28 -28 -28 -28 -28 -29 -29 -29 -28
-23 -23 -23 -23 -23 -23 -23 -23 -23 -23 -23 -23 -23 -23 -23 -23 -23 -24 -24 -24 -24 -25 -25 -26 -26 -27 -27 -28 -28 -28 -28 -28 -29 -29 -29 -29 -30 -30 -30 -30 -30 -30 -30 -30
-23 -23 -23 -23 -23 -23 -23 -23 -23 -23 -23 -24 -24 -24 -24 -24 -24 -25 -25 -26 -27 -28 -28 -28 -29 -29 -29 -29 -29 -30 -30 -30 -31 -31 -31 -32 -32 -32 -32 -32 -32 -32 -32 -32
-24 -24 -24 -24 -24 -24 -24 -24 -24 -24 -24 -24 -24 -25 -25 -26 -26 -28 -29 -29 -29 -29 -29 -30 -30 -30 -31 -31 -31 -31 -32 -32 -32 -33 -33 -34 -34 -34 -34 -34 -35 -35 -35 -35
-24 -24 -24 -24 -24 -24 -24 -24 -25 -25 -25 -25 -26 -26 -27 -29 -29 -29 -30 -30 -30 -30 -31 -31 -31 -31 -32 -32 -32 -33 -33 -33 -34 -34 -35 -35 -35 -35 -36 -36 -37 -37 -37 -37
-25 -25 -25 -25 -25 -25 -25 -25 -25 -26 -26 -27 -28 -29 -29 -30 -30 -30 -31 -31 -31 -31 -31 -32 -32 -32 -33 -33 -34 -35 -35 -35 -36 -36 -36 -37 -37 -37 -37 -38 -38 -38 -38 -38
-25 -25 -25 -25 -25 -26 -26 -26 -27 -28 -28 -29 -30 -30 -30 -30 -31 -31 -31 -31 -32 -32 -32 -32 -32 -33 -34 -34 -35 -36 -36 -37 -37 -38 -38 -38 -38 -39 -39 -39 -39 -39 -39 -39
Height
5695 5701 5707 5712 5715 5716 5720 5720 5724 5726 5731 5734 5738 5742 5746 5750 5753 5756 5759 5762 5765 5767 5770 5772 5775 5776 5778 5780 5781 5783 5784 5786 5787 5787 5788 5790 5790 5791 5792 5793 5793 5793 5796 5797
5692 5698 5701 5704 5706 5711 5715 5715 5719 5721 5724 5728 5732 5736 5739 5743 5746 5750 5753 5756 5758 5761 5763 5766 5768 5770 5771 5773 5774 5776 5777 5778 5779 5780 5780 5781 5782 5783 5784 5785 5785 5787 5789 5789
5688 5693 5695 5699 5702 5707 5711 5711 5715 5719 5722 5725 5728 5730 5733 5737 5740 5743 5746 5749 5751 5754 5756 5758 5760 5762 5764 5765 5766 5767 5768 5769 5771 5771 5772 5772 5773 5774 5775 5776 5777 5778 5780 5780
5682 5686 5690 5695 5700 5703 5707 5708 5708 5712 5716 5720 5721 5723 5726 5729 5733 5736 5739 5741 5743 5746 5748 5750 5752 5754 5755 5756 5757 5758 5759 5760 5761 5761 5762 5763 5764 5764 5765 5766 5767 5768 5769 5770
5680 5682 5686 5690 5696 5697 5703 5704 5703 5705 5709 5713 5714 5714 5719 5724 5727 5730 5732 5734 5737 5738 5739 5741 5742 5744 5745 5747 5748 5749 5749 5750 5750 5751 5751 5752 5752 5753 5753 5754 5755 5756 5757 5758
5671 5676 5680 5684 5688 5692 5697 5699 5701 5698 5701 5701 5706 5708 5711 5716 5721 5723 5724 5725 5727 5729 5731 5732 5733 5734 5735 5736 5737 5738 5738 5739 5739 5739 5740 5740 5740 5740 5741 5741 5742 5743 5744 5745
5667 5671 5674 5678 5681 5684 5688 5691 5693 5694 5692 5695 5701 5699 5700 5707 5711 5714 5715 5717 5718 5719 5720 5721 5722 5723 5723 5724 5724 5725 5726 5726 5726 5727 5727 5727 5727 5727 5728 5728 5728 5728 5729 5730
5660 5664 5667 5672 5675 5678 5682 5684 5686 5687 5687 5690 5691 5691 5692 5696 5701 5704 5705 5706 5707 5708 5709 5710 5711 5711 5711 5712 5712 5712 5713 5713 5713 5713 5713 5713 5713 5713 5713 5713 5713 5713 5713 5714
5651 5655 5660 5663 5666 5670 5672 5674 5678 5679 5680 5679 5681 5683 5686 5687 5690 5692 5693 5695 5696 5696 5697 5697 5698 5699 5699 5699 5699 5699 5699 5698 5698 5698 5697 5697 5697 5697 5697 5697 5697 5697 5696 5696
5643 5647 5651 5654 5656 5659 5661 5665 5667 5667 5669 5668 5670 5673 5676 5678 5680 5680 5681 5681 5682 5683 5685 5685 5685 5685 5685 5684 5684 5683 5683 5682 5682 5681 5681 5680 5680 5679 5679 5678 5678 5678 5678 5678
5635 5639 5643 5645 5647 5650 5653 5654 5656 5659 5658 5659 5661 5663 5666 5667 5668 5667 5669 5670 5670 5670 5670 5670 5670 5670 5669 5668 5668 5667 5666 5665 5664 5663 5662 5662 5661 5660 5659 5659 5658 5658 5658 5658
5626 5628 5632 5636 5638 5640 5642 5644 5646 5646 5649 5650 5652 5654 5656 5658 5657 5656 5655 5656 5655 5656 5655 5655 5655 5654 5653 5652 5651 5650 5649 5648 5647 5645 5644 5643 5641 5640 5640 5639 5638 5637 5636 5636
5616 5617 5621 5626 5629 5631 5632 5635 5637 5638 5639 5639 5641 5643 5644 5645 5646 5644 5643 5643 5641 5641 5640 5639 5638 5637 5636 5635 5634 5632 5631 5629 5628 5626 5624 5623 5621 5619 5617 5616 5615 5614 5613 5613
5606 5608 5611 5615 5619 5621 5622 5624 5626 5627 5628 5629 5630 5631 5631 5631 5631 5631 5630 5629 5627 5626 5625 5623 5622 5620 5618 5617 5615 5613 5611 5609 5607 5604 5602 5600 5597 5595 5593 5591 5590 5588 5588 5587
5597 5599 5601 5603 5606 5608 5611 5613 5614 5615 5617 5618 5621 5620 5619 5619 5618 5618 5616 5614 5612 5610 5608 5606 5603 5601 5599 5596 5593 5590 5588 5585 5583 5580 5577 5574 5571 5569 5567 5564 5562 5560 5559 5558
5585 5588 5590 5592 5595 5598 5601 5603 5605 5606 5607 5608 5608 5609 5608 5608 5606 5604 5602 5599 5597 5594 5591 5588 5585 5581 5578 5575 5572 5567 5564 5560 5558 5554 5550 5547 5543 5541 5538 5536 5533 5530 5528 5526
5579 5581 5584 5585 5587 5589 5591 5593 5595 5596 5597 5598 5598 5598 5597 5595 5593 5590 5587 5584 5581 5577 5574 5570 5565 5560 5556 5551 5547 5542 5538 5533 5529 5525 5521 5516 5512 5509 5506 5503 5500 5497 5495 5492
5571 5574 5576 5577 5580 5580 5583 5585 5586 5587 5587 5587 5586 5585 5583 5581 5578 5574 5571 5567 5563 5559 5554 5549 5544 5538 5533 5528 5523 5517 5511 5506 5501 5495 5489 5483 5478 5475 5471 5467 5463 5460 5457 5455
5564 5567 5568 5570 5572 5573 5574 5575 5576 5575 5575 5573 5571 5570 5568 5565 5562 5557 5553 5549 5544 5539 5533 5527 5521 5514 5507 5501 5496 5489 5482 5476 5470 5465 5459 5453 5448 5444 5439 5435 5430 5425 5423 5420
5557 5558 5560 5561 5562 5563 5564 5564 5563 5563 5560 5558 5556 5553 5550 5547 5543 5538 5533 5528 5522 5516 5510 5504 5497 5489 5481 5474 5469 5462 5455 5449 5444 5437 5431 5424 5418 5414 5410 5406 5401 5397 5393 5391
5547 5549 5550 5550 5551 5552 5552 5551 5551 5550 5549 5543 5540 5537 5532 5528 5524 5517 5512 5505 5500 5493 5486 5479 5471 5464 5456 5450 5445 5438 5430 5424 5418 5412 5404 5397 5390 5385 5380 5377 5370 5367 5363 5360
5538 5539 5540 5540 5540 5541 5540 5539 5539 5535 5531 5528 5524 5520 5515 5510 5504 5498 5491 5484 5477 5471 5464 5457 5451 5442 5434 5428 5422 5414 5406 5399 5393 5386 5378 5370 5363 5358 5353 5348 5342 5338 5333 5330
5527 5529 5529 5530 5528 5527 5527 5525 5523 5520 5517 5513 5508 5503 5497 5491 5485 5478 5472 5466 5459 5453 5446 5439 5432 5424 5413 5407 5400 5393 5384 5378 5372 5364 5355 5348 5341 5335 5329 5324 5319 5315 5309 5306
5516 5517 5517 5518 5516 5515 5513 5511 5509 5506 5502 5497 5491 5486 5480 5474 5469 5462 5456 5449 5442 5435 5429 5422 5414 5406 5396 5387 5378 5370 5364 5357 5350 5342 5334 5326 5321 5315 5308 5302 5297 5292 5288 5284
5505 5506 5505 5505 5504 5502 5500 5498 5495 5491 5486 5481 5476 5471 5466 5461 5454 5448 5441 5434 5427 5420 5413 5405 5397 5388 5377 5368 5359 5348 5342 5336 5329 5321 5314 5308 5302 5295 5290 5284 5277 5272 5267 5263
5494 5494 5494 5493 5492 5490 5488 5484 5481 5477 5473 5468 5464 5459 5454 5449 5441 5435 5427 5420 5412 5404 5396 5388 5379 5369 5359 5350 5342 5331 5324 5317 5310 5303 5296 5289 5284 5278 5273 5268 5263 5253 5248 5244
Wind_Speed
27 28 25 24 25 30 30 35 34 35 34 35 34 33 31 32 31 31 31 30 30 29 29 28 28 27 28 28 28 28 28 28 29 29 29 29 30 30 30 31 32 32 31 31
28 24 27 29 32 31 29 32 34 37 37 36 34 33 33 33 33 32 32 31 32 31 31 31 31 31 31 31 31 32 32 32 32 33 33 33 33 33 34 34 35 35 34 34
25 26 30 30 31 31 29 31 30 32 32 33 32 34 35 34 34 34 34 34 33 33 33 33 34 34 35 35 36 36 36 37 37 37 37 37 38 38 38 38 39 39 38 37
29 29 31 30 30 29 27 28 31 33 32 31 32 36 36 36 36 36 36 36 36 35 35 36 37 37 38 39 40 40 41 41 41 41 41 41 42 42 42 43 43 43 43 43
25 29 29 30 28 32 29 30 32 33 32 32 35 40 38 37 36 35 35 34 35 36 36 37 39 40 40 41 42 42 43 43 44 44 45 46 46 47 47 47 48 48 48 48
28 29 30 30 32 31 30 32 33 36 35 39 36 39 40 39 35 34 35 36 36 37 38 39 40 41 42 43 44 45 46 46 47 48 49 49 50 51 51 52 53 53 53 53
25 27 29 31 32 34 33 33 34 37 40 41 35 39 44 40 37 36 37 37 38 39 40 41 43 44 45 46 47 48 49 50 50 51 52 53 54 54 55 56 57 57 58 58
29 29 29 29 31 32 30 31 34 37 40 39 39 42 45 43 40 39 40 41 41 42 43 44 45 46 46 48 49 50 51 52 53 55 56 57 57 58 59 60 61 61 62 63
34 34 33 33 34 34 34 37 36 38 40 42 44 45 45 45 43 42 42 43 43 44 44 45 46 47 49 51 52 54 56 58 59 60 61 62 63 64 65 66 67 68 68 69
34 34 34 34 35 37 38 38 40 42 43 45 47 46 47 46 45 44 45 45 46 47 47 48 50 52 53 55 57 59 60 62 63 64 65 66 67 68 69 70 71 72 73 74
28 32 33 34 35 33 34 36 37 38 42 44 45 48 47 47 46 47 46 47 48 50 51 52 53 54 56 57 58 60 61 63 63 64 65 66 67 68 69 70 70 71 72 73
33 37 38 36 37 36 37 38 38 39 40 40 41 44 43 44 46 47 48 50 51 53 54 55 55 56 57 59 60 60 62 63 65 66 67 68 70 70 71 72 73 74 75 76
39 44 41 39 39 38 38 38 39 41 41 43 44 47 46 46 47 49 51 52 53 53 54 55 57 58 60 61 64 65 67 68 69 71 72 73 75 76 77 78 79 79 80 81
38 38 39 38 38 38 39 40 41 42 43 44 46 46 47 47 47 47 48 50 54 57 58 60 62 63 65 66 68 70 72 74 75 77 79 80 82 83 84 85 86 87 87 88
39 41 43 44 44 42 39 38 37 36 36 36 37 39 42 45 48 50 52 53 56 59 61 63 66 68 69 71 73 75 77 79 80 82 84 85 87 88 89 91 92 93 94 94
40 39 35 33 30 27 28 30 33 34 36 37 38 40 43 47 50 53 55 58 60 63 65 68 70 72 74 76 78 80 82 84 85 87 89 90 92 93 95 96 97 99 100 101
23 25 26 30 33 35 35 34 33 35 36 37 39 42 44 47 50 54 57 61 64 67 69 72 74 76 78 80 82 84 86 88 90 92 94 96 98 99 101 102 103 104 105 106
27 28 28 28 28 31 31 30 32 34 36 40 43 46 49 53 56 59 61 64 66 68 71 73 75 78 82 84 87 89 91 93 95 97 99 101 102 103 103 104 105 105 105 105
26 28 29 30 31 32 34 34 36 39 43 46 48 51 53 55 58 61 63 65 68 71 74 77 79 83 86 88 91 93 94 95 95 93 92 91 92 92 92 92 92 94 94 93
30 30 30 31 33 35 37 38 41 43 46 48 51 54 56 58 60 63 66 69 72 74 77 80 83 85 86 86 84 84 84 85 85 86 87 88 89 89 90 90 91 92 92 92
32 32 33 35 37 39 39 41 42 46 50 52 54 56 58 60 63 67 70 72 75 76 76 76 75 75 76 77 78 80 82 83 84 85 86 87 87 88 88 88 89 90 90 91
33 33 34 36 37 40 41 44 46 49 51 53 55 58 61 64 66 68 70 70 68 66 66 67 69 71 72 73 73 74 74 74 75 76 77 77 78 78 78 78 77 77 78 77
34 35 36 37 39 41 42 44 47 50 53 56 58 60 62 64 62 60 58 58 59 61 63 63 62 63 65 66 66 67 68 69 69 69 69 70 70 70 69 69 67 66 66 66
36 37 38 39 41 42 44 47 49 52 54 56 57 58 55 52 52 54 55 57 57 57 57 56 57 60 62 64 66 67 67 68 67 66 65 65 64 63 63 62 62 62 62 61
38 38 38 40 42 43 45 48 50 51 52 51 48 47 48 49 52 51 53 53 53 53 53 55 58 60 62 64 65 65 66 65 63 62 61 60 59 58 57 57 58 59 60 61
37 39 40 40 41 43 45 46 46 44 42 42 44 46 47 46 48 49 51 51 51 53 55 57 59 61 63 64 64 63 63 61 60 58 57 57 55 53 53 52 51 54 56 57
Wind_Direction
213 215 217 218 215 213 218 221 216 217 223 223 222 223 221 227 229 229 233 231 235 238 240 241 243 245 246 245 246 246 246 248 249 251 252 252 253 253 253 254 256 256 257 261
214 210 211 211 216 214 214 225 226 222 218 224 225 227 229 229 232 231 233 234 236 239 242 245 248 249 249 249 250 252 251 251 252 254 256 257 257 257 259 259 259 259 260 261
210 206 213 213 218 219 213 226 233 232 234 236 234 233 234 233 235 235 236 238 240 242 245 247 249 251 253 253 254 256 256 257 257 256 257 258 259 259 259 260 261 263 262 263
211 210 214 216 216 218 219 226 233 236 239 241 241 239 238 238 238 241 241 243 245 247 249 251 253 255 256 257 258 260 261 262 262 262 262 262 262 262 262 262 261 262 262 262
215 216 219 220 219 220 217 222 235 243 242 241 242 245 240 244 245 248 251 252 254 256 257 258 259 260 260 261 262 263 263 263 264 264 265 265 265 265 265 265 264 264 264 264
218 218 218 221 223 224 220 224 227 239 242 246 245 249 249 246 249 251 253 254 256 257 260 261 262 263 264 264 264 265 265 266 266 266 266 266 267 267 267 267 267 267 266 266
223 221 222 221 224 226 225 226 228 234 242 248 246 252 254 252 254 255 256 258 259 260 260 261 262 264 265 266 267 267 267 267 267 267 267 267 267 267 267 267 268 268 268 267
227 225 226 225 227 233 231 232 238 240 245 250 251 248 254 259 259 259 259 261 261 261 261 262 262 263 263 264 265 266 266 266 266 267 267 267 267 268 268 268 268 268 267 267
231 231 230 232 231 233 235 236 239 242 247 249 250 252 255 259 261 262 263 261 261 261 260 260 260 262 263 264 265 265 266 267 267 267 267 266 266 266 266 266 267 267 267 267
235 236 235 238 239 237 239 239 240 242 244 248 252 254 256 259 260 259 259 260 260 261 263 264 266 267 267 268 268 267 267 267 266 266 266 266 266 266 266 266 265 265 265 265
243 239 235 236 238 241 241 243 244 245 246 246 251 255 256 259 260 261 264 266 268 270 270 270 271 271 271 270 269 268 268 267 267 267 266 266 266 266 266 266 266 266 266 265
238 242 243 242 242 245 248 249 249 250 252 255 256 257 259 263 266 269 271 270 270 271 272 272 271 270 269 269 268 268 268 268 268 268 268 268 267 267 267 267 266 266 266 266
240 243 246 245 246 248 251 253 254 254 256 258 260 264 263 262 263 263 265 267 270 271 271 271 272 273 272 272 271 271 271 270 270 270 270 270 270 269 269 269 268 267 267 266
242 246 248 249 250 248 249 249 250 252 252 254 256 259 262 263 265 266 266 268 270 272 272 273 273 273 274 274 274 274 274 273 273 273 273 273 272 272 272 271 271 270 270 269
244 245 246 247 246 242 241 243 247 252 256 257 260 261 264 267 270 271 272 273 273 274 275 276 276 277 277 278 278 278 277 277 277 276 276 275 275 274 274 273 273 272 272 271
225 230 235 238 242 246 246 248 252 255 258 261 262 264 266 268 270 271 273 274 275 276 277 279 279 279 279 279 279 279 279 278 278 278 277 277 276 276 275 275 274 273 273 272
240 244 243 244 246 250 250 254 257 260 263 265 266 268 269 271 273 274 276 277 278 279 280 280 281 281 281 281 281 281 281 281 281 280 279 279 278 277 277 276 275 274 274 273
243 247 250 253 253 252 255 257 259 262 265 268 271 272 274 275 276 277 278 280 281 281 282 282 282 282 282 282 282 282 282 282 281 281 281 280 280 279 278 278 277 276 275 275
246 246 248 250 253 258 258 262 266 269 272 274 276 276 278 279 281 281 282 282 283 283 284 284 284 284 284 284 284 283 283 283 283 282 282 281 281 280 280 279 278 278 277 276
247 248 252 256 259 262 265 269 272 275 277 279 281 283 285 285 285 286 286 286 286 286 285 285 285 284 284 285 284 284 284 284 284 283 283 283 282 281 280 279 278 278 277 276
252 256 258 260 264 267 270 274 278 280 282 285 287 288 288 289 289 288 288 288 287 287 287 287 287 288 288 288 287 287 286 286 285 285 284 284 283 282 281 280 280 279 278 277
257 261 264 266 270 273 276 278 281 284 287 288 289 289 289 289 289 289 289 289 290 290 291 291 291 291 291 291 291 291 290 290 289 288 287 286 285 285 284 283 282 281 280 279
262 265 271 273 275 277 279 282 285 286 287 289 290 290 290 290 291 291 292 292 293 293 293 294 294 294 294 294 294 293 292 292 291 290 289 288 287 287 286 285 284 283 282 281
265 269 274 276 276 279 282 284 286 288 289 290 290 291 292 293 293 294 294 294 295 295 296 297 298 298 298 299 298 297 295 294 293 292 291 291 290 290 289 288 288 286 285 284
268 271 272 275 279 281 284 286 288 289 290 291 292 293 294 295 295 295 295 296 297 297 298 300 301 302 302 302 301 299 298 297 295 294 292 291 292 292 292 291 290 288 287 285
266 269 272 276 279 282 285 288 289 291 293 295 296 295 295 295 296 297 298 297 297 299 301 303 304 305 304 303 300 298 297 297 295 294 294 293 292 292 292 292 292 293 291 289